This is the latest recevied weather packets stored in our database for station/object ON7AMI-5. If no packets are shown the sender has not sent any weather packets the latest 1 day(s).
| Time | Temp. | Humidity | Pressure | Rain* | Wind** | Luminosity | Snow |
|---|---|---|---|---|---|---|---|
| 1777998035 | 15.56° C | 94% | 1010 hPa | 0 mm | 3.58 m/s, 38° | - | - |
| 1777997735 | 15.56° C | 94% | 1010.1 hPa | 0 mm | 3.58 m/s, 14° | - | - |
| 1777997435 | 16.11° C | 94% | 1010 hPa | 0 mm | 1.34 m/s, 55° | - | - |
| 1777997135 | 16.11° C | 94% | 1010 hPa | 0 mm | 2.24 m/s, 20° | - | - |
| 1777996834 | 16.11° C | 94% | 1010 hPa | 0 mm | 2.24 m/s, 36° | - | - |
| 1777996539 | 16.11° C | 94% | 1010.1 hPa | 0 mm | 4.47 m/s, 35° | - | - |
| 1777996235 | 16.11° C | 94% | 1010.1 hPa | 0 mm | 2.24 m/s, 32° | - | - |
| 1777995934 | 15.56° C | 95% | 1010.2 hPa | 0 mm | 2.68 m/s, 46° | - | - |
| 1777995635 | 16.11° C | 95% | 1010.2 hPa | 0 mm | 4.92 m/s, 32° | - | - |
| 1777995335 | 16.67° C | 95% | 1010.3 hPa | 0 mm | 3.58 m/s, 34° | - | - |
| 1777995028 | 16.67° C | 95% | 1010.3 hPa | 0 mm | 2.68 m/s, 62° | - | - |
| 1777994735 | 16.67° C | 95% | 1010.3 hPa | 0 mm | 3.58 m/s, 45° | - | - |
| 1777994435 | 16.11° C | 95% | 1010.2 hPa | 0 mm | 2.24 m/s, 45° | - | - |
| 1777994128 | 16.67° C | 95% | 1010.2 hPa | 0 mm | 1.79 m/s, 6° | - | - |
| 1777993835 | 16.11° C | 95% | 1010.4 hPa | 0 mm | 1.34 m/s, 36° | - | - |
| 1777993535 | 15.56° C | 95% | 1010.5 hPa | 0 mm | 1.79 m/s, 316° | - | - |
| 1777993228 | 15° C | 96% | 1010.6 hPa | 0 mm | 0.45 m/s, 117° | - | - |
| 1777992935 | 15° C | 96% | 1010.7 hPa | 0 mm | 0.45 m/s, 96° | - | - |
| 1777992635 | 15° C | 96% | 1010.6 hPa | 0 mm | 1.34 m/s, 38° | - | - |
| 1777992335 | 15° C | 96% | 1010.7 hPa | 0 mm | 1.34 m/s, 30° | - | - |
| 1777992036 | 14.44° C | 96% | 1010.9 hPa | 0 mm | 0.45 m/s, 11° | - | - |
| 1777991735 | 14.44° C | 96% | 1010.9 hPa | 0 mm | 2.68 m/s, 41° | - | - |
| 1777991435 | 13.89° C | 96% | 1010.9 hPa | 0 mm | 0.89 m/s, 76° | - | - |
| 1777991135 | 14.44° C | 96% | 1010.9 hPa | 0 mm | 0.45 m/s, 215° | - | - |
| 1777990836 | 14.44° C | 96% | 1011 hPa | 0 mm | 0.45 m/s, 225° | - | - |
* Rain latest hour (hover to see other rain measurements)
** Current wind speed in m/s (hover to see current wind gust speed)